Theta_e
305 309 308 306 306 305 304 303 304 303 303 304 303 303 304 303 302 302 304 304 302 302 304 304 304 303 300 294 292 292 290 289 288 288 288 288 288 288 287 287 286 286 286 285 285 285 284 284 284 284 285 285 285 285 285 286 286 286 286 288 289 290 291 294 297 299 301 303 304 304 304 304 305 307 308 308 308 309 309 310 310 311 311 311 310 309
306 308 306 304 304 303 302 305 306 305 305 304 300 302 303 301 300 299 303 306 301 300 301 301 300 298 294 292 291 291 290 289 288 288 288 288 288 288 287 287 287 286 286 286 285 285 285 284 284 284 284 284 284 284 284 285 285 285 285 286 286 287 288 289 290 292 295 297 298 299 300 300 301 303 304 305 306 306 307 308 308 308 308 308 308 308
307 305 305 303 300 301 303 306 306 303 303 301 298 300 301 299 299 299 303 305 300 299 299 299 298 294 291 291 290 290 289 289 288 288 288 288 287 287 287 287 287 286 286 286 286 285 285 285 284 284 284 284 284 284 284 284 284 284 285 285 285 285 286 286 286 287 289 291 293 295 297 297 299 300 299 300 301 302 304 306 307 307 307 306 306 307
304 304 303 298 299 304 305 304 302 300 300 299 299 300 299 298 298 298 300 301 299 299 300 299 298 294 291 291 290 290 289 288 288 287 287 287 286 286 286 286 286 286 286 286 286 286 285 285 285 284 284 284 284 284 284 284 284 284 284 284 284 284 285 285 285 285 286 287 289 292 294 295 297 299 299 298 299 300 301 302 304 305 306 305 305 305
303 303 301 299 302 305 302 300 300 299 298 299 300 299 297 298 298 298 299 299 298 299 300 299 298 295 291 291 290 289 289 288 287 287 286 286 286 286 285 285 285 286 286 286 286 286 285 285 285 285 284 284 284 284 284 284 284 284 284 284 284 284 284 284 284 284 285 285 286 288 291 294 296 297 299 300 300 300 299 299 300 301 302 303 304 304
303 301 300 303 306 302 298 298 299 299 298 298 300 299 297 298 299 299 299 299 298 298 300 299 298 296 292 291 290 288 288 287 287 287 286 286 286 286 285 285 285 285 285 285 285 285 285 285 285 285 285 284 284 284 284 284 284 284 284 284 284 284 284 284 284 284 284 284 285 285 287 290 290 291 293 293 294 297 297 297 297 297 298 299 300 302
303 302 300 303 304 300 298 298 298 299 299 298 299 299 298 298 299 299 298 298 298 298 298 298 298 298 293 290 290 288 288 287 287 287 286 286 286 286 286 286 285 285 285 285 285 285 285 285 285 285 285 285 285 284 284 284 284 284 284 284 284 284 284 284 284 284 284 284 284 284 284 285 285 285 286 286 287 290 292 293 295 296 296 296 296 298
302 305 304 304 303 299 297 297 298 298 298 299 299 298 298 299 299 299 298 297 298 298 297 298 299 299 296 291 290 289 289 288 288 287 287 287 286 286 286 286 286 285 285 285 285 284 284 285 285 285 285 285 285 284 284 283 283 284 284 284 284 284 284 284 284 284 284 284 283 283 283 283 283 283 284 284 284 285 287 289 292 295 296 296 295 295
301 305 304 303 300 297 297 298 298 298 298 299 298 298 300 299 299 298 297 297 296 297 298 298 298 299 297 292 290 290 289 289 288 287 287 287 287 286 286 286 286 286 285 285 285 285 285 285 285 285 284 284 284 284 283 283 283 283 283 283 284 284 284 283 283 283 283 284 283 283 283 282 282 282 282 283 283 284 284 285 287 290 293 295 295 294
300 302 300 301 299 296 298 298 298 298 297 298 298 299 299 298 297 296 296 297 297 298 300 297 296 298 297 292 290 291 290 289 289 288 288 288 287 286 285 285 285 285 285 285 285 285 285 285 285 284 284 284 284 283 284 283 283 283 283 283 283 283 283 283 283 283 283 283 283 283 283 283 282 282 282 282 283 283 284 284 285 286 288 289 291 292
298 300 300 300 298 296 297 297 296 297 296 296 298 298 296 296 297 296 298 301 298 298 299 297 295 297 297 292 289 290 290 289 289 288 288 287 287 286 285 285 285 285 285 285 285 285 285 285 285 284 284 283 283 283 284 284 283 283 283 283 283 283 283 283 283 283 283 283 283 283 283 282 282 282 282 282 282 282 282 283 284 284 285 285 286 287
299 299 299 299 297 295 296 295 295 296 295 295 296 296 294 295 296 295 299 300 296 296 298 295 294 296 296 292 289 289 289 289 289 288 287 287 286 286 286 286 286 285 285 285 285 285 284 284 284 284 283 283 283 283 283 283 283 283 283 283 283 283 283 283 282 282 282 282 282 282 282 282 282 282 281 281 281 281 281 281 282 282 283 284 284 285
300 297 296 298 297 294 294 294 295 295 295 294 294 294 292 293 294 292 294 296 294 295 296 294 294 295 293 290 289 288 288 288 288 287 287 287 286 286 286 286 285 285 285 285 284 284 284 284 283 283 283 283 283 283 283 283 282 283 283 283 283 283 282 282 282 282 282 282 282 282 282 281 281 281 281 281 281 280 280 280 280 280 281 281 282 283
300 297 296 297 296 294 294 294 294 295 294 294 293 293 292 292 293 292 292 294 294 294 293 292 294 294 292 290 288 288 288 287 287 287 287 287 286 286 286 285 285 285 285 284 284 284 284 284 283 283 283 283 282 282 282 282 282 282 282 283 283 282 282 281 281 281 281 281 282 281 281 281 281 281 281 280 280 280 280 280 279 279 279 280 280 281
298 296 296 296 293 293 294 294 294 294 295 294 293 294 294 293 293 294 294 294 293 292 292 293 294 293 292 291 288 287 288 288 287 287 286 286 286 286 286 285 285 285 285 284 284 284 284 283 283 283 283 282 282 282 282 282 282 282 282 283 283 282 281 281 281 281 281 281 281 281 281 280 280 280 280 280 280 280 280 279 279 279 279 279 279 279
296 295 295 295 293 293 294 294 294 294 294 293 293 294 295 292 293 295 295 293 293 291 291 294 295 292 290 289 288 288 288 288 287 287 287 286 286 286 286 286 285 285 285 284 284 284 283 283 283 282 282 282 281 281 281 281 281 281 282 282 282 281 281 281 280 280 280 280 280 280 280 280 280 280 280 280 279 279 280 279 279 279 279 279 278 278
295 295 296 295 293 293 293 293 293 292 292 292 292 292 293 292 293 295 293 292 291 291 291 293 293 291 290 289 288 287 288 288 288 287 287 287 286 286 286 286 285 285 285 284 283 283 283 282 282 282 281 281 281 281 281 281 281 282 282 282 282 281 281 281 281 280 280 280 280 280 280 280 280 280 279 279 279 279 279 279 279 279 279 279 278 278
295 295 295 293 292 293 293 293 292 291 291 291 291 290 292 293 293 293 292 291 290 290 290 290 290 290 291 289 288 287 287 288 287 287 287 287 286 286 286 285 285 285 284 283 283 282 282 282 281 281 281 281 281 281 281 282 281 282 282 281 281 281 281 281 280 280 280 280 280 280 280 280 280 280 279 279 279 279 279 279 279 279 279 279 278 278
296 297 295 292 292 293 292 292 292 291 290 290 290 291 293 293 293 292 291 290 289 289 289 289 289 289 290 290 289 288 288 287 287 287 287 286 286 286 285 285 285 284 284 283 282 282 281 281 281 280 280 281 281 281 281 281 281 281 281 281 280 280 280 280 280 280 280 280 280 280 280 280 280 279 279 279 279 279 279 279 279 279 279 279 278 278
295 297 295 293 292 292 292 293 292 290 289 289 290 290 292 294 293 291 290 290 290 289 289 288 287 288 291 292 290 289 288 288 288 287 286 285 285 285 285 285 284 283 283 282 282 281 281 281 280 280 280 280 280 280 280 280 280 280 280 280 280 280 280 280 280 280 280 280 280 280 280 280 279 279 279 279 279 279 279 279 279 279 279 278 278 278
295 295 294 293 292 291 292 292 291 289 289 290 289 290 292 293 292 289 290 291 290 289 288 287 287 288 291 290 288 289 289 288 287 286 285 284 284 284 284 284 283 282 282 282 281 281 280 280 280 280 279 279 279 279 279 279 279 279 279 279 279 279 280 280 280 280 280 280 280 280 280 279 279 279 279 279 279 279 279 279 278 278 278 278 278 277
296 295 293 293 292 291 291 291 290 289 289 289 289 290 292 292 291 289 288 290 290 289 288 288 287 287 289 288 288 288 288 286 286 286 284 283 284 284 284 283 282 282 281 281 280 280 280 279 279 279 279 278 278 278 278 278 279 279 279 279 279 279 279 279 279 279 279 279 279 279 279 279 279 279 279 279 278 278 278 278 278 278 278 278 278 277
295 295 293 292 291 290 291 291 289 288 290 290 289 290 292 291 290 289 288 288 289 288 288 288 287 287 287 287 287 287 286 286 287 285 283 283 283 283 283 282 282 281 281 280 280 280 279 279 279 278 278 278 278 278 278 278 278 278 278 278 278 278 278 278 278 278 278 278 278 279 279 279 279 279 278 278 278 278 278 278 278 278 278 278 278 277
294 295 292 292 291 290 291 291 288 288 289 289 289 291 292 291 290 290 289 287 287 287 288 287 286 287 286 284 285 286 286 286 285 284 283 283 283 283 282 282 281 280 280 280 279 279 279 279 278 278 278 277 277 277 277 278 278 278 278 278 278 277 277 277 277 277 277 277 277 277 277 277 277 277 277 277 277 277 278 278 278 278 278 277 277 277
292 293 293 293 290 288 289 289 288 288 288 288 289 291 291 290 289 289 287 286 286 287 287 287 286 286 286 284 284 284 284 284 284 283 283 283 282 282 281 281 280 280 280 279 279 279 279 278 278 277 277 277 277 277 277 277 278 278 278 277 277 277 276 276 276 276 275 275 275 275 275 276 276 276 276 276 277 277 277 277 278 278 277 277 277 276
292 293 294 294 291 288 288 288 287 287 287 287 289 289 289 288 288 288 287 286 286 286 286 286 286 286 286 286 284 284 283 283 283 283 282 282 282 281 281 280 280 280 279 279 279 279 278 278 277 277 277 277 277 277 277 277 277 277 277 276 276 276 275 275 275 275 275 275 274 274 274 274 275 276 276 276 277 277 277 277 277 277 277 277 276 276
294 293 294 294 292 289 288 287 287 288 287 288 289 288 288 288 287 286 286 286 287 286 285 285 285 285 285 285 284 284 283 283 283 282 282 281 281 280 280 280 280 279 279 279 279 278 278 277 277 277 277 276 276 276 276 277 277 277 276 276 275 275 275 274 274 274 274 274 274 274 274 273 274 275 275 276 276 276 276 276 276 276 276 276 276 276
295 292 292 292 290 289 288 287 286 287 287 287 288 287 287 288 287 286 286 286 286 286 285 285 285 284 284 284 283 283 283 282 282 282 281 281 280 280 280 279 279 279 279 278 278 278 277 277 277 276 276 276 276 276 276 276 276 276 275 275 274 274 274 274 274 274 274 273 273 273 273 273 273 273 273 274 274 274 274 274 275 275 275 275 275 275
294 292 290 290 289 288 287 286 286 287 287 287 287 287 286 286 286 286 286 285 285 285 285 285 284 283 283 283 283 283 282 282 282 281 280 280 280 280 279 279 279 279 278 278 278 277 277 277 276 276 276 276 275 276 276 276 275 275 274 274 274 274 274 274 273 273 273 273 273 273 272 272 272 272 272 272 272 272 272 272 273 273 273 273 273 274
292 293 291 289 288 287 286 286 286 286 287 286 286 286 285 286 286 286 285 284 284 284 284 284 283 282 283 283 282 282 282 281 281 280 280 280 280 279 279 279 279 278 278 278 277 277 277 276 276 276 275 275 275 275 275 275 274 274 273 273 273 273 273 273 273 273 272 272 272 272 272 272 271 271 271 271 271 270 270 271 271 271 272 272 272 272
290 291 290 288 287 286 286 287 288 288 287 285 285 285 284 285 285 285 284 284 283 283 283 283 282 282 282 282 282 282 281 281 280 280 280 280 279 279 279 279 278 278 278 277 277 277 276 276 276 275 275 275 275 275 274 274 273 273 273 273 273 273 272 272 272 272 271 271 271 271 271 271 270 270 270 270 270 270 270 270 270 270 271 271 271 272
290 290 289 287 287 287 286 287 287 286 285 284 284 284 284 285 286 285 284 284 284 283 283 282 281 282 282 282 281 281 280 280 280 279 279 279 279 279 279 278 278 278 278 277 277 276 276 276 275 275 275 274 274 274 273 273 273 273 273 272 272 272 271 271 271 270 270 270 270 270 270 270 270 269 269 269 269 269 269 269 269 270 270 270 271 271
291 290 289 287 287 288 286 285 284 284 285 288 289 288 286 286 286 285 284 284 283 283 282 281 281 282 282 281 280 280 280 279 279 279 279 279 279 279 278 278 278 278 277 277 276 276 276 275 275 274 274 274 273 273 272 272 272 272 272 271 271 271 270 270 270 270 269 269 269 269 269 269 269 269 269 269 269 269 269 269 269 269 269 270 270 270
289 290 288 286 287 289 286 284 284 286 289 290 289 288 287 286 285 285 284 283 282 282 281 281 281 281 281 280 280 279 279 279 279 279 279 279 279 278 278 278 278 277 277 276 276 275 275 275 274 274 274 273 273 272 272 272 272 271 271 270 270 270 269 269 269 269 269 269 269 269 268 268 268 268 268 268 268 268 268 268 268 269 269 269 269 269
289 289 288 286 286 288 287 285 286 290 292 289 286 286 285 284 284 283 282 282 281 281 281 281 281 281 280 280 280 279 279 279 279 279 279 279 278 278 278 278 277 277 276 275 275 275 274 274 274 274 273 273 272 272 271 271 271 270 270 270 269 269 269 268 268 268 268 268 268 268 267 267 267 268 268 268 268 268 268 268 268 268 268 269 269 269
291 289 287 287 286 287 287 286 287 289 289 286 285 285 283 283 283 282 282 282 282 282 281 281 280 280 279 279 279 279 279 279 279 279 278 278 278 278 278 277 277 276 275 275 274 274 274 274 274 273 273 272 271 271 271 271 270 270 269 269 269 268 268 268 268 268 268 267 267 267 267 267 267 267 267 267 267 268 268 268 268 268 268 268 269 269
289 289 287 287 286 286 286 286 285 286 286 287 286 284 283 284 284 283 283 283 282 281 281 280 280 279 278 279 279 279 279 278 278 278 278 278 278 277 277 277 276 275 275 274 274 274 274 274 273 273 272 271 271 271 271 270 270 269 269 268 268 268 268 268 267 267 267 267 267 267 267 267 267 267 267 267 267 267 267 268 268 268 268 268 268 268
284 286 287 287 287 286 285 286 286 286 289 291 288 283 282 283 282 281 281 281 281 280 280 280 280 279 279 279 279 279 278 278 278 278 278 278 277 277 277 276 276 275 274 274 274 273 273 273 273 272 271 271 270 270 270 270 269 269 268 268 268 267 267 267 267 267 267 267 267 267 267 267 267 267 267 267 267 267 267 268 268 268 268 267 267 267
283 285 286 287 288 287 285 286 286 286 288 290 287 282 281 282 281 280 281 282 281 280 280 280 279 279 279 279 278 278 278 277 277 278 278 278 277 277 276 276 275 275 274 274 273 273 273 273 272 271 271 270 270 270 269 269 269 268 267 267 267 267 267 267 266 266 266 266 266 267 267 267 267 266 266 266 266 267 267 267 268 268 267 267 266 266
285 286 286 286 287 287 285 286 285 284 286 288 286 283 281 282 281 280 282 284 282 280 280 280 279 279 279 279 278 278 277 277 278 278 278 277 277 276 276 275 275 274 274 273 273 273 273 272 272 271 270 270 269 269 269 268 268 267 267 267 267 267 266 266 266 266 266 266 266 266 266 266 266 266 266 266 266 267 267 267 267 267 267 266 266 266
287 286 285 285 286 285 284 285 284 284 286 286 284 282 282 281 281 281 284 284 281 280 280 280 279 279 279 278 278 278 278 278 278 278 277 277 276 276 275 275 274 274 273 273 273 272 272 272 271 270 270 269 269 268 268 268 267 266 266 266 266 266 266 265 265 265 265 266 266 266 266 266 266 266 266 266 266 266 267 267 267 267 266 266 266 266
288 287 284 284 285 284 283 284 283 285 286 284 282 282 282 281 282 283 284 283 281 281 281 280 279 279 279 278 278 278 278 278 277 277 277 276 276 275 275 274 274 273 273 273 272 272 272 271 270 270 269 269 268 268 268 267 266 266 266 266 266 265 265 265 265 265 265 265 265 266 266 266 266 265 266 266 266 266 266 267 267 266 266 266 266 265
288 289 288 286 285 283 282 282 285 289 288 282 281 282 281 282 285 285 283 282 282 282 281 280 280 279 279 279 278 278 277 277 277 276 276 275 275 275 274 274 273 273 272 272 272 271 271 270 270 269 269 268 268 267 267 266 266 265 265 265 265 265 265 265 265 265 265 265 265 265 265 265 265 265 265 266 266 266 266 266 266 266 266 266 266 265
287 288 291 289 285 285 285 286 289 291 287 282 283 285 283 283 285 284 283 282 282 281 281 280 280 280 279 278 278 277 277 276 276 276 275 275 275 274 274 273 272 272 272 271 271 271 270 269 269 268 268 267 267 267 266 266 265 265 264 265 265 265 265 264 264 265 265 265 265 265 265 265 265 265 265 266 266 266 266 266 266 266 266 266 266 265
288 287 288 288 287 286 288 289 287 285 284 283 284 285 285 284 285 284 283 283 282 281 281 280 280 280 279 278 277 277 277 276 276 276 275 275 274 273 273 272 272 271 271 271 271 270 269 269 268 267 267 267 267 266 266 265 265 264 264 264 264 264 264 264 264 264 264 264 264 264 265 265 265 265 265 266 266 266 266 266 265 265 266 266 266 265
287 284 284 287 287 285 285 287 286 284 285 285 285 285 285 285 284 284 283 282 282 281 281 280 280 279 278 277 277 276 276 276 275 275 275 274 273 273 272 271 271 271 271 270 270 269 268 268 267 267 266 266 266 266 265 265 264 264 264 264 264 264 264 264 264 264 264 264 264 264 264 265 265 265 265 265 265 265 266 265 265 265 265 265 265 265
285 283 284 286 286 285 286 286 285 285 286 285 285 285 284 284 284 283 283 282 282 281 281 280 279 278 278 277 277 276 276 275 275 275 274 273 272 272 271 271 271 270 270 269 269 268 268 267 266 266 266 266 265 265 265 264 264 264 264 264 264 264 264 264 264 264 264 264 264 264 264 265 265 265 265 265 265 265 265 265 265 265 265 265 265 265
286 284 285 286 285 285 286 286 284 284 285 285 284 284 284 284 284 283 282 282 282 281 281 280 279 278 277 277 276 276 275 275 274 274 273 272 272 271 270 270 270 270 270 269 268 267 267 266 266 265 265 265 265 264 264 264 264 264 263 263 264 264 263 263 263 263 263 263 264 264 264 265 265 265 265 265 265 265 265 265 265 265 265 265 264 264
285 284 285 286 285 284 285 285 285 285 285 285 285 285 284 284 284 283 282 282 281 281 280 279 278 278 277 276 276 275 275 274 274 273 272 271 271 271 270 270 270 269 269 268 267 266 266 265 265 265 265 264 264 264 264 264 263 263 263 263 263 263 263 263 263 263 263 263 263 264 264 264 264 265 265 265 265 265 265 264 264 264 265 265 264 263
284 285 284 284 285 286 286 286 286 286 286 286 285 285 285 284 283 282 282 282 281 281 280 279 278 277 276 276 276 275 274 274 274 273 272 271 271 271 270 269 269 269 268 267 267 266 265 265 265 264 264 264 264 264 263 263 263 263 263 263 263 263 263 263 263 263 263 263 263 264 264 264 264 264 264 264 265 265 265 265 264 264 264 265 264 264
285 287 285 285 287 288 287 288 287 286 286 286 286 285 285 284 283 282 282 282 281 281 280 278 278 277 276 276 275 275 274 274 273 272 272 271 271 270 270 269 269 268 267 267 266 266 265 265 264 264 264 264 264 264 263 263 263 263 263 263 263 263 263 263 263 263 263 263 263 263 264 264 264 264 264 264 264 264 264 265 265 265 264 264 264 265
Wind_Speed
6 5 5 4 5 6 6 3 1 2 1 2 3 2 4 5 6 6 7 8 6 5 6 3 7 10 5 9 10 18 26 26 23 24 25 25 27 28 29 30 30 31 31 31 31 33 35 35 36 36 36 35 35 36 36 35 35 34 32 30 27 26 24 22 21 21 19 15 12 11 11 10 7 7 13 18 20 24 29 31 33 38 42 44 45 44
7 7 3 4 5 3 3 4 5 4 4 5 4 4 6 4 9 10 8 6 7 6 8 8 9 7 11 10 12 21 22 20 21 22 22 24 26 27 28 28 28 29 30 32 33 34 36 37 38 39 39 40 41 41 41 41 40 38 37 36 34 33 31 29 27 25 24 22 19 17 17 16 11 6 4 8 13 17 22 28 30 31 33 35 37 40
7 5 3 7 4 2 5 6 7 5 4 6 5 4 6 6 9 10 7 6 5 5 10 14 8 7 13 12 16 21 19 18 23 25 24 25 26 27 28 28 28 29 31 32 33 34 35 37 38 40 41 42 42 42 43 43 43 42 41 40 38 36 35 34 33 30 28 25 21 18 17 17 12 8 8 6 3 8 15 22 26 29 30 30 31 34
6 2 4 5 5 6 6 6 8 6 5 6 6 4 7 8 8 8 10 13 10 2 7 13 5 7 9 10 14 18 20 22 25 28 28 28 26 25 26 27 28 28 29 30 31 33 34 35 37 39 40 41 41 42 43 43 44 44 44 43 41 39 38 37 36 34 31 28 23 18 15 14 11 7 7 7 4 2 5 11 16 23 27 27 27 29
5 4 5 6 8 8 8 10 11 8 6 5 4 3 8 12 10 9 10 14 15 7 5 5 4 4 5 8 9 12 18 20 22 26 27 26 26 25 26 27 27 27 26 27 29 30 32 33 34 35 37 38 40 41 42 42 42 43 42 42 42 41 40 39 39 37 35 32 29 25 17 12 11 11 12 11 8 8 8 6 4 9 17 20 23 26
4 5 6 6 7 11 11 10 9 7 7 6 3 3 8 10 11 11 10 8 10 8 1 5 6 1 3 8 7 7 10 13 17 21 21 22 24 25 26 26 25 26 25 25 26 27 29 30 30 32 33 35 37 38 39 39 40 41 40 40 41 41 41 40 40 40 39 39 37 35 29 23 22 23 22 21 19 17 17 15 11 8 6 9 13 21
2 7 7 6 7 12 12 8 8 7 6 6 5 6 8 8 9 12 12 6 2 8 5 6 2 3 2 7 6 6 8 9 11 13 15 18 21 22 22 23 23 24 25 25 26 26 27 28 29 29 30 31 32 34 36 37 38 38 39 39 39 39 40 40 40 39 40 40 40 39 35 31 30 28 26 26 26 23 23 21 16 12 9 7 6 9
3 9 8 8 9 10 9 8 8 8 5 6 9 10 11 10 12 12 10 5 2 6 8 2 3 4 1 4 4 5 8 8 8 9 10 14 17 19 19 20 21 22 23 23 24 25 25 25 26 27 27 28 29 31 34 35 36 36 37 37 37 37 39 39 39 39 39 38 38 38 37 34 31 29 26 25 25 24 23 22 20 15 13 11 11 10
2 6 7 7 10 8 7 8 9 7 4 6 10 11 10 8 11 11 6 5 3 2 6 5 2 2 2 1 2 3 6 7 7 7 7 10 13 16 18 18 18 18 18 19 19 19 21 22 23 24 25 26 27 30 33 34 34 34 35 35 34 35 37 37 38 39 38 37 36 36 36 36 34 31 28 25 23 22 21 21 20 19 17 14 14 15
2 2 3 6 7 6 5 8 9 6 4 8 10 10 9 7 8 8 4 3 4 2 4 7 9 5 3 2 3 2 4 4 4 5 5 6 9 13 16 16 15 15 15 16 17 17 19 21 22 23 24 26 28 29 30 32 33 34 34 33 32 32 33 34 36 37 37 37 36 35 35 35 35 33 31 29 26 25 24 23 22 21 21 20 19 20
3 1 3 6 7 10 8 8 10 8 8 9 9 8 8 7 5 4 2 2 3 2 4 8 13 10 4 2 4 4 3 4 2 2 3 6 9 11 13 14 14 15 16 17 18 18 19 21 22 23 25 27 27 27 28 30 32 34 34 32 30 29 29 31 32 33 34 35 35 35 34 34 34 34 33 33 32 31 30 28 27 24 23 23 22 23
6 7 5 3 12 17 9 6 9 8 9 9 4 5 6 5 3 3 3 3 4 4 4 11 14 9 4 1 2 2 1 2 2 2 4 7 8 9 11 14 15 16 17 17 18 20 20 22 23 23 25 26 26 27 29 31 32 34 34 33 30 28 27 28 29 30 31 32 33 34 34 34 34 34 33 33 33 34 34 32 30 27 24 23 23 24
5 5 6 4 13 19 8 3 6 3 5 8 4 5 6 4 5 5 4 5 4 6 7 13 12 4 1 2 1 1 1 3 4 4 5 5 7 9 12 13 13 14 16 17 18 20 21 22 23 23 24 26 27 28 30 31 32 33 33 32 29 27 26 25 26 28 29 30 31 32 33 33 33 32 32 32 32 32 33 33 32 29 27 24 24 24
2 2 7 5 8 16 9 4 5 3 5 8 7 6 5 4 6 6 5 5 5 9 11 13 8 2 1 2 5 3 0 3 3 3 4 5 8 11 12 11 11 13 15 16 17 20 21 21 22 23 23 25 27 30 31 31 31 31 32 31 27 25 25 24 24 25 26 28 30 32 33 33 33 32 31 31 31 31 31 31 32 32 31 29 26 24
2 3 6 3 4 12 8 3 3 2 2 5 3 4 4 3 2 2 3 4 6 9 11 9 4 1 2 1 4 4 2 0 2 3 5 8 10 12 12 12 12 14 15 15 17 20 20 21 21 22 23 25 28 32 33 32 30 30 30 29 25 24 22 22 23 23 24 27 28 31 33 34 33 32 31 30 30 30 30 31 31 32 33 33 31 28
3 2 4 2 6 11 6 3 7 4 1 2 2 4 3 2 2 3 3 2 5 9 7 3 0 2 1 1 4 4 4 4 4 6 8 11 13 14 16 16 15 17 17 17 19 21 20 19 20 21 24 28 32 34 33 32 31 29 27 25 23 22 21 21 21 22 24 26 27 30 33 33 32 32 32 31 29 29 29 31 31 31 32 33 34 33
3 3 3 2 6 9 5 4 11 9 2 2 3 3 5 4 4 1 4 2 2 6 5 1 2 2 1 2 3 4 5 5 5 7 10 13 16 16 18 19 19 20 19 18 20 21 20 20 22 25 30 33 35 34 30 28 27 25 22 20 20 20 21 22 23 24 26 27 28 30 33 33 31 30 31 31 31 30 29 30 31 32 32 32 33 34
1 3 3 2 5 9 8 10 14 12 6 3 2 4 5 2 4 3 2 2 3 4 5 4 5 4 3 2 0 3 5 5 5 8 11 14 16 17 19 20 21 21 19 18 19 19 21 23 26 30 32 31 29 25 22 21 21 19 17 18 20 22 24 25 26 27 28 29 30 31 32 33 31 30 30 30 31 31 31 31 31 32 33 33 34 35
3 1 5 1 4 9 6 7 7 7 9 8 1 4 1 2 1 1 0 2 4 5 6 7 6 4 4 3 1 4 6 5 7 7 8 11 15 18 21 21 21 20 19 20 21 23 25 27 30 31 28 23 20 18 19 20 21 19 19 22 24 25 26 27 27 28 29 29 30 31 32 32 32 31 30 30 30 31 32 33 33 34 35 35 35 36
3 3 4 3 5 7 5 4 3 4 4 7 3 2 2 3 2 1 0 1 2 4 6 8 8 4 5 5 4 5 6 6 7 6 6 11 17 21 22 20 19 19 20 21 24 27 29 31 32 27 21 19 20 20 22 23 23 24 25 26 27 27 27 26 26 26 26 28 28 29 30 30 31 30 30 30 30 30 31 33 34 36 37 36 36 37
2 3 2 4 6 4 2 1 1 3 4 4 4 4 4 2 1 2 1 2 2 2 4 7 9 6 4 3 4 5 6 6 7 7 8 15 20 20 19 17 17 18 20 22 25 27 29 31 29 22 19 22 23 25 26 25 25 25 25 27 27 28 28 27 25 24 23 24 26 27 28 28 28 28 28 29 30 31 32 32 34 36 38 39 39 39
1 2 2 4 5 2 3 2 6 5 4 3 3 4 3 3 2 3 5 1 3 1 3 6 9 8 3 3 4 5 6 8 10 11 13 18 19 18 17 16 17 19 21 24 26 27 30 30 24 20 21 24 25 26 27 25 25 26 26 27 26 26 26 26 26 25 24 24 25 26 26 26 26 26 26 28 29 31 32 32 33 35 37 40 41 41
2 3 0 4 3 5 9 3 9 7 6 5 0 1 1 2 3 1 5 4 2 2 3 4 7 7 3 5 6 7 9 12 14 14 16 18 18 19 19 18 19 21 24 26 27 29 32 28 21 21 24 25 26 28 27 26 26 27 29 29 28 27 26 26 26 26 26 26 26 26 25 25 26 27 29 30 31 33 35 36 37 37 38 40 42 43
1 3 2 4 3 5 8 3 5 4 7 4 1 1 2 0 1 4 4 2 2 3 2 2 6 7 3 6 9 10 12 13 14 16 16 17 20 21 20 20 22 24 26 27 28 31 30 23 20 23 26 27 29 30 28 28 29 30 31 30 28 27 27 28 29 29 29 29 29 29 30 30 32 32 34 34 35 35 37 39 41 41 42 41 41 42
0 1 2 3 5 4 4 3 2 0 3 1 3 2 3 2 2 2 1 2 2 4 4 2 7 8 4 5 7 7 9 11 15 17 16 17 21 21 21 23 25 27 28 28 31 32 25 20 22 25 27 29 32 32 31 31 32 31 30 28 28 29 30 31 31 32 32 32 32 33 33 34 34 35 35 35 34 35 36 39 41 42 42 41 41 42
2 2 3 4 2 3 4 4 4 4 4 3 2 1 2 4 4 2 1 1 3 5 5 4 8 13 9 6 6 7 7 11 17 17 15 17 20 21 24 26 26 27 28 31 34 29 22 21 25 27 28 31 33 33 34 33 32 29 28 28 30 31 31 32 32 34 35 35 35 36 35 34 33 33 32 32 33 34 35 37 39 41 41 41 42 43
4 1 2 6 6 5 6 8 8 6 6 6 7 7 6 5 4 4 2 2 4 4 5 7 10 15 17 13 10 11 11 13 16 15 15 18 20 23 26 27 27 28 30 34 33 25 21 25 28 29 31 32 33 36 37 34 30 28 29 31 31 31 32 33 34 35 36 37 37 37 36 35 34 34 33 32 33 34 35 36 38 39 40 42 43 44
4 0 3 6 7 8 9 11 11 8 8 10 10 9 8 6 5 7 5 7 3 1 9 11 8 10 18 15 11 13 15 14 13 15 17 20 22 25 27 27 28 30 33 34 28 22 23 27 29 31 33 34 37 40 37 31 29 29 32 33 34 35 35 34 35 36 36 36 36 35 35 36 36 37 37 37 38 39 40 40 40 40 41 42 44 45
5 2 5 4 6 10 10 11 11 9 8 9 10 10 10 8 7 9 11 9 6 4 13 16 11 12 18 15 12 14 15 14 14 17 20 24 26 28 28 28 28 31 35 31 23 21 26 29 30 33 35 38 40 37 31 28 30 33 35 37 37 37 35 35 35 35 34 33 33 33 35 36 37 38 39 40 41 42 43 43 44 45 45 45 46 48
4 2 4 3 5 9 9 11 11 8 6 8 10 12 11 9 10 11 11 8 8 11 15 15 16 18 16 12 12 14 15 16 18 21 23 26 28 29 28 27 29 32 31 24 21 24 28 29 32 35 37 39 37 32 29 31 35 37 38 38 38 36 34 34 34 33 33 33 33 35 36 38 38 39 39 39 40 41 42 42 42 43 43 43 44 44
3 1 1 2 4 7 6 7 8 7 8 10 13 13 9 8 9 9 8 6 7 10 12 11 15 17 13 11 12 14 14 16 19 22 25 27 28 28 27 28 31 31 26 21 23 28 29 32 35 37 37 35 32 31 33 36 37 38 38 37 35 34 33 32 33 34 34 35 37 38 39 39 38 38 39 39 39 37 34 34 34 36 37 37 36 34
3 1 2 5 4 6 4 3 6 9 9 10 12 12 9 7 6 6 5 6 7 8 9 9 11 12 11 11 14 14 15 17 19 21 25 27 28 27 27 30 31 27 23 24 28 31 34 36 38 38 35 31 30 33 36 37 38 38 36 34 33 33 33 34 35 37 37 38 39 38 37 36 37 38 37 34 31 29 30 32 34 36 36 36 33 31
4 2 1 3 2 6 2 2 7 7 5 6 7 7 7 7 6 6 6 7 8 7 6 8 10 11 11 12 12 12 14 16 20 24 26 28 28 29 30 29 26 23 24 29 33 35 38 39 37 34 31 30 33 36 37 36 36 34 33 33 34 36 37 38 39 39 38 37 35 35 35 36 37 34 31 28 28 30 33 34 35 34 34 34 33 33
4 4 1 2 1 6 6 6 6 4 3 5 5 6 7 7 8 8 8 8 9 8 8 10 12 13 14 12 10 11 14 18 25 31 30 28 28 30 29 24 21 23 29 33 36 37 38 38 36 33 32 34 37 38 36 34 32 32 33 35 38 41 41 40 38 35 33 32 33 35 36 34 31 28 27 28 30 31 31 30 30 31 31 32 33 35
5 4 2 2 2 4 5 6 6 3 4 6 5 5 6 6 7 9 11 12 12 12 13 13 14 15 15 15 16 18 22 26 29 31 30 29 28 26 23 21 22 28 32 35 36 38 38 36 34 34 35 37 39 38 35 33 32 34 36 39 42 42 39 35 32 30 31 34 35 34 31 28 26 26 27 29 30 30 31 31 33 34 34 36 37 38
6 5 2 2 2 2 3 3 1 6 8 6 3 3 4 3 2 5 11 12 11 10 11 12 13 14 14 18 21 25 29 31 29 28 27 25 22 19 19 22 27 30 32 34 36 38 37 35 34 35 37 39 40 37 34 33 35 37 40 43 42 37 32 28 29 32 35 36 33 28 25 24 25 26 27 30 32 34 35 36 36 37 38 39 39 39
8 4 2 1 1 1 1 2 3 7 10 7 2 3 5 4 3 2 6 12 8 8 13 12 9 10 14 19 24 28 30 27 21 20 20 17 16 18 22 26 29 31 33 34 35 37 36 35 35 36 38 40 40 36 34 35 37 40 43 43 37 30 27 29 33 37 36 32 27 24 23 24 24 26 30 33 36 37 37 37 37 37 36 36 36 35
7 3 3 2 1 2 1 4 4 5 6 5 6 6 7 9 7 7 3 11 12 11 15 11 6 10 15 20 24 26 25 19 12 12 15 16 20 25 29 31 32 32 33 35 36 37 36 35 35 36 38 40 38 35 35 36 39 42 42 37 30 27 30 35 38 36 31 25 23 23 23 24 27 31 35 36 37 37 37 37 36 35 33 32 32 32
3 2 4 3 2 1 2 2 2 3 7 7 6 8 11 12 7 6 0 10 8 7 13 11 8 15 18 21 23 18 13 11 10 14 21 25 28 31 33 35 35 34 34 36 36 36 34 34 35 37 39 39 37 35 36 38 41 42 37 30 27 31 35 37 36 31 25 22 23 24 26 28 31 35 37 36 35 35 35 34 33 32 30 29 29 30
1 1 2 3 4 3 4 3 4 5 8 7 6 10 14 11 9 7 4 10 6 13 13 10 13 19 20 23 22 12 6 9 15 24 32 34 34 35 35 35 35 34 36 37 37 36 34 34 36 38 40 39 36 35 37 39 41 38 32 28 30 35 37 36 32 26 21 22 24 27 29 32 35 37 37 34 32 32 31 31 30 29 27 26 27 27
2 1 2 3 4 4 5 4 5 5 7 7 7 14 18 10 6 2 6 7 8 12 12 13 18 22 22 23 20 14 16 22 26 33 38 37 36 37 35 34 34 34 35 37 36 35 35 35 36 37 39 38 35 35 37 38 37 34 29 29 33 36 36 32 28 24 22 24 27 30 32 34 37 37 35 33 30 29 28 27 27 26 25 26 27 26
1 0 1 2 3 4 4 3 4 6 8 8 9 14 16 8 0 6 9 8 9 15 19 20 21 24 24 25 24 23 28 32 33 35 36 35 36 37 35 34 35 35 37 37 34 33 33 35 37 39 39 37 35 36 37 37 35 31 28 30 34 34 31 27 25 23 23 26 29 31 33 36 37 37 34 31 28 27 26 25 24 24 25 26 26 25
4 3 3 3 4 3 1 1 3 7 6 13 14 10 10 8 9 14 14 16 19 22 23 23 23 25 26 28 29 29 32 34 33 34 35 35 35 34 34 35 36 37 38 36 33 31 31 34 38 40 38 36 35 36 37 36 33 30 29 31 33 31 27 24 23 23 25 28 30 32 35 37 37 35 31 28 26 24 24 23 23 23 24 24 24 23
4 5 3 3 4 4 3 5 5 3 8 21 17 6 11 18 24 27 24 24 25 24 24 25 26 27 27 28 30 32 33 33 32 33 34 34 34 34 35 36 38 39 38 34 31 31 32 36 38 37 35 35 35 36 37 34 32 31 30 29 31 29 25 22 23 24 26 29 31 33 35 36 34 31 28 25 23 22 22 22 22 23 23 21 21 22
8 9 4 3 5 5 5 11 11 5 6 16 19 22 26 30 34 33 28 28 29 28 27 27 29 29 27 28 31 32 31 32 33 32 32 33 34 35 37 39 40 38 34 31 31 34 36 37 36 34 34 34 35 38 38 33 31 30 28 28 30 29 23 21 23 26 28 30 32 34 35 34 31 28 25 23 22 21 21 21 21 21 21 20 20 20
10 9 4 1 3 5 12 21 23 23 25 27 29 31 33 34 34 32 30 30 30 30 29 29 30 31 29 28 29 30 31 33 33 32 31 33 35 37 40 41 38 33 31 32 35 38 38 36 34 32 33 35 36 38 37 33 30 27 26 28 31 27 21 21 25 27 29 30 32 33 33 31 29 26 24 22 21 20 20 20 20 21 20 19 18 19
6 10 6 3 1 2 8 12 13 19 28 29 27 29 31 32 33 32 30 31 30 30 30 29 29 29 28 27 27 29 31 31 31 31 32 34 36 39 40 38 34 31 32 35 38 39 37 35 34 33 33 35 38 38 35 31 27 23 24 30 30 24 20 22 26 28 29 30 32 33 31 29 28 26 25 23 21 20 19 19 19 19 18 17 18 19
4 9 6 5 5 6 10 14 18 26 32 31 29 30 30 30 31 31 29 30 29 28 28 28 27 27 28 28 27 28 30 29 29 30 32 33 36 38 37 35 33 34 36 38 39 37 35 34 34 34 34 36 38 37 33 29 24 23 27 30 26 20 20 25 27 28 28 30 32 32 30 28 27 26 25 24 22 21 20 19 18 18 17 17 17 19
8 8 5 3 4 7 13 19 24 27 27 26 25 26 27 27 28 27 27 27 27 27 28 27 26 25 27 29 29 28 30 30 29 29 30 32 35 37 36 35 35 37 39 40 39 35 33 34 34 33 34 37 38 35 31 27 24 25 28 27 22 21 25 28 27 26 27 30 32 32 29 28 27 25 25 24 23 21 20 19 19 19 19 17 16 17
9 4 3 2 3 7 10 16 16 11 12 18 23 25 29 30 27 26 26 26 27 29 29 27 27 26 25 27 28 28 29 30 29 28 28 30 34 36 35 35 37 39 40 40 37 35 34 33 33 32 35 37 36 32 29 27 27 27 27 25 24 25 26 25 24 25 28 31 33 32 29 27 26 25 24 24 24 23 22 20 19 18 18 17 15 15
17 13 9 7 7 12 18 24 21 13 15 25 31 31 30 29 26 26 28 29 29 30 28 26 27 28 27 27 27 26 28 29 29 28 29 31 34 36 35 35 37 39 39 38 36 35 34 33 32 32 35 37 34 30 28 28 27 26 26 26 25 23 20 20 22 25 29 32 33 32 29 27 26 25 24 23 23 24 24 23 21 17 15 15 15 15
Wind_Direction
57 51 45 29 343 338 346 17 33 246 204 290 290 309 301 299 296 284 271 287 359 353 279 283 289 293 23 62 52 61 66 64 62 60 57 53 50 48 46 44 43 41 39 38 39 39 39 40 39 38 38 36 35 33 32 32 31 29 27 24 21 16 8 356 348 349 350 348 346 344 346 347 331 266 238 231 230 228 227 228 230 231 231 230 227 226
65 66 30 330 310 327 12 52 49 32 25 360 356 349 334 321 309 303 281 295 19 9 298 308 310 337 50 50 42 55 60 56 56 57 53 50 47 45 42 39 38 36 35 36 36 37 36 36 37 36 36 34 33 32 30 30 30 29 28 26 24 22 19 17 11 6 0 357 357 356 359 1 0 348 297 240 229 228 227 226 225 225 226 228 228 227
52 59 323 315 309 86 66 58 55 41 19 5 6 359 341 335 312 299 286 305 13 16 309 311 325 42 56 54 49 53 62 60 57 59 53 49 46 42 39 36 35 33 32 33 32 32 32 32 33 32 32 30 29 29 28 28 27 27 28 26 25 23 21 22 21 19 15 8 0 354 354 356 357 2 6 358 279 230 225 225 224 224 223 225 227 228
56 352 304 360 29 71 51 24 33 27 23 6 355 3 337 333 335 314 315 325 325 273 266 296 329 79 57 58 58 51 63 63 58 59 53 50 48 43 41 37 35 32 29 29 29 29 29 29 30 28 27 26 25 25 24 23 22 22 23 24 24 23 22 22 20 21 21 18 11 2 354 347 345 343 338 340 333 296 241 229 223 221 221 225 227 228
84 309 318 35 42 57 39 16 23 16 3 342 314 358 337 324 325 305 306 324 322 300 217 285 356 87 46 53 65 49 59 60 54 56 51 49 48 44 44 41 38 36 31 30 28 27 27 26 26 25 24 23 23 22 20 18 18 17 17 18 18 19 20 20 19 18 17 18 17 13 3 337 327 327 321 321 327 342 345 330 275 234 223 223 227 227
80 334 349 37 36 42 37 18 21 10 353 337 287 338 333 311 306 298 303 331 330 317 71 60 15 345 54 57 67 50 56 56 52 54 49 44 44 42 42 39 38 38 35 33 29 26 24 22 21 20 19 19 19 19 17 15 14 12 12 12 12 12 14 14 15 15 15 16 16 17 16 6 359 358 351 349 347 343 344 344 346 337 279 235 230 226
24 356 25 70 44 34 32 12 8 16 8 335 310 332 333 315 304 301 311 339 327 292 322 61 41 248 83 64 66 66 67 62 53 53 48 42 40 39 38 35 33 32 31 31 29 26 22 19 17 15 13 12 12 13 13 12 10 9 8 7 6 6 8 8 8 9 9 12 14 16 21 20 15 12 7 2 356 348 341 337 334 338 330 316 300 247
344 1 20 52 43 33 25 1 349 11 20 310 317 336 334 322 310 305 312 311 240 282 308 18 169 234 28 80 114 98 74 62 55 49 43 39 36 34 33 31 27 25 24 23 23 23 20 17 14 11 8 5 5 6 7 8 7 6 5 3 2 0 1 2 3 3 4 6 8 10 13 16 17 16 12 7 1 354 347 339 333 331 329 323 329 325
356 11 10 40 44 31 9 342 327 357 19 288 313 329 321 312 299 300 308 286 283 340 311 319 24 306 297 98 158 116 78 57 55 49 35 33 32 30 29 27 25 22 19 18 16 13 11 10 9 8 7 4 1 1 2 3 2 1 1 360 358 355 355 357 357 358 359 360 2 3 5 8 10 11 10 8 4 360 355 350 345 339 333 324 320 325
338 357 27 68 53 18 348 329 324 351 339 298 324 330 314 310 293 293 307 296 330 15 295 331 6 343 289 48 7 20 64 41 48 56 31 24 27 26 26 23 21 16 10 7 4 1 0 1 1 2 3 1 360 358 357 356 356 355 354 353 353 352 351 352 352 352 353 354 355 356 358 359 1 3 4 4 2 1 360 359 358 352 344 336 327 323
321 359 63 87 43 8 352 342 334 335 332 331 343 338 321 312 301 316 345 61 21 310 280 351 359 340 309 63 38 14 19 17 35 53 18 21 23 19 14 8 3 358 354 353 352 353 354 354 355 357 358 358 357 354 352 350 349 349 347 345 345 346 346 347 348 349 348 349 350 351 353 353 354 355 356 357 357 357 358 359 1 359 351 343 335 329
22 48 30 52 32 14 2 352 339 332 356 12 356 334 336 315 328 13 3 45 26 281 297 351 344 331 290 246 57 29 1 40 49 22 14 16 10 357 348 345 345 347 348 348 348 348 349 350 352 354 355 356 355 352 349 346 344 342 340 337 336 338 341 342 344 345 345 346 346 346 348 348 349 350 350 352 353 353 354 356 357 357 352 345 337 332
37 53 0 11 26 15 9 350 339 337 28 21 360 1 10 350 355 2 352 9 341 293 325 340 327 316 247 223 189 229 267 39 28 23 16 355 336 327 326 332 340 346 345 343 344 345 346 349 350 351 351 350 351 350 346 343 340 338 334 329 329 333 338 339 341 342 342 343 343 344 344 343 344 345 346 347 347 348 350 351 352 353 353 348 342 337
347 342 1 10 8 9 21 39 356 339 15 14 11 19 24 13 360 343 339 345 308 301 322 331 323 306 328 195 184 201 6 32 16 15 356 319 306 308 314 323 330 337 337 334 338 340 342 348 349 347 346 344 344 343 342 339 337 334 329 322 324 333 337 339 342 342 341 341 341 341 341 340 338 339 341 341 341 343 344 346 347 349 350 349 347 343
23 339 353 356 4 9 14 65 27 317 6 25 19 59 75 54 1 282 318 331 306 304 314 332 348 251 288 178 162 162 156 169 312 315 307 301 302 305 312 317 316 322 326 324 331 335 338 345 347 345 342 339 338 337 336 335 333 331 324 317 324 334 336 339 340 340 340 339 338 338 337 336 334 334 335 336 336 337 338 340 342 343 344 345 345 344
34 298 284 329 38 29 6 358 26 21 53 37 32 82 65 330 211 213 259 268 290 298 298 325 277 212 278 217 173 163 185 216 253 277 286 298 307 310 313 316 313 316 321 324 331 335 338 343 345 342 338 335 333 333 333 331 329 328 320 316 326 333 333 336 336 335 335 335 334 334 333 332 330 329 330 330 330 332 334 335 336 337 338 339 340 340
32 287 278 359 16 32 58 68 46 41 14 343 31 20 303 267 149 126 295 269 293 299 289 286 279 292 349 262 206 194 221 230 247 268 283 298 308 308 308 313 316 317 321 330 336 339 341 341 339 337 334 331 330 329 329 328 325 324 320 320 326 328 328 330 330 329 329 328 328 329 328 327 325 324 324 325 326 326 328 330 331 332 333 333 334 335
114 284 304 72 0 6 54 87 71 59 54 46 12 310 301 317 100 95 297 307 329 294 283 293 294 300 310 303 237 212 235 248 259 264 278 294 303 303 302 309 315 317 323 332 338 339 339 336 333 333 331 329 329 327 328 330 329 329 328 325 325 324 325 326 325 325 326 324 323 324 324 322 319 318 317 319 320 320 321 324 326 326 326 327 328 329
98 328 292 10 11 345 18 81 72 49 66 90 159 276 350 60 10 16 282 298 307 295 293 298 294 279 262 261 216 214 229 248 268 271 276 292 302 300 301 310 318 323 329 333 335 335 334 333 332 332 329 327 328 327 327 328 327 327 325 322 323 325 327 327 325 325 323 322 322 321 320 317 315 313 311 311 313 312 313 315 318 319 319 320 322 324
80 98 276 310 9 347 357 51 20 343 52 102 121 329 54 133 210 271 298 204 256 284 292 301 304 283 236 223 204 233 248 253 277 291 285 296 306 302 301 310 320 327 329 330 331 329 329 330 330 327 322 323 327 326 325 324 321 319 318 317 317 317 316 315 317 321 322 322 320 317 316 314 312 310 308 307 306 305 305 306 309 311 313 314 316 319
37 89 249 307 1 13 6 47 74 9 6 27 27 7 359 350 254 284 294 145 152 267 283 303 302 278 236 201 193 236 254 253 270 283 288 301 311 311 308 313 322 327 327 326 327 326 326 327 325 320 320 326 330 329 328 327 322 319 318 316 312 307 303 302 304 310 314 315 314 311 310 309 309 309 306 304 302 302 301 300 300 303 306 309 312 315
45 91 220 302 346 1 292 210 144 111 63 41 359 345 338 354 32 352 322 15 115 214 258 288 292 279 240 171 189 225 238 252 269 280 292 303 315 320 316 315 321 325 325 325 324 325 326 325 320 321 329 333 334 333 331 327 322 319 317 314 309 304 301 300 302 304 305 307 308 310 310 306 304 304 303 302 301 301 301 300 298 298 299 303 307 309
149 102 212 284 285 270 280 229 144 122 89 103 143 8 73 39 67 40 293 295 333 294 266 269 281 277 222 180 201 222 240 259 277 286 293 306 319 322 315 315 319 321 321 322 322 324 324 322 320 328 334 335 334 334 330 323 319 317 315 312 308 306 307 308 309 309 308 308 308 310 310 304 300 299 298 299 299 299 299 298 297 296 297 299 301 303
95 69 347 293 275 262 274 245 152 112 76 87 242 150 122 324 173 184 218 272 301 275 275 294 279 276 244 210 213 227 249 267 288 298 301 310 319 317 314 315 317 318 319 319 320 322 321 318 323 331 333 332 333 333 327 321 318 315 313 311 310 312 315 317 318 318 317 316 314 311 309 305 302 301 300 299 298 298 297 295 295 295 296 297 298 298
86 95 33 348 343 325 312 331 299 314 65 88 234 171 144 177 198 217 236 18 299 231 179 198 273 278 257 214 220 241 263 284 302 305 304 311 315 315 315 315 315 316 318 318 319 320 318 319 327 331 331 331 332 331 327 322 317 313 312 313 315 318 320 321 321 321 321 319 317 314 311 308 306 304 302 300 297 293 291 290 290 291 292 293 293 293
132 153 111 96 37 321 303 302 288 290 319 312 245 207 210 202 200 249 331 6 283 246 172 176 263 282 283 267 281 293 294 304 309 307 305 311 314 314 314 313 314 315 316 318 319 316 313 320 327 328 329 330 330 330 328 322 313 310 312 316 320 322 321 321 320 318 317 316 314 312 310 307 304 301 297 294 289 285 283 282 282 283 284 286 288 289
99 96 150 146 167 209 238 252 264 282 288 284 283 282 270 230 172 128 113 215 236 263 257 228 240 272 286 290 301 308 308 308 308 309 312 314 315 313 312 312 312 314 316 317 315 310 312 321 325 327 328 328 328 328 327 318 308 309 316 320 322 322 320 318 316 314 313 312 311 309 308 306 303 299 295 290 286 283 281 281 280 280 280 280 283 286
92 305 218 171 193 224 242 257 268 274 264 266 277 279 275 261 172 151 209 233 188 311 279 260 235 262 281 290 302 305 304 304 305 311 315 315 314 312 311 311 311 313 316 316 311 307 316 323 325 326 326 326 326 326 322 313 308 314 320 320 321 320 318 315 312 311 310 310 310 309 308 306 303 300 297 294 293 291 290 288 287 286 285 284 284 284
111 220 221 178 222 242 248 259 262 259 256 261 267 269 277 270 214 198 228 227 172 198 261 274 284 277 278 289 298 292 292 296 303 310 312 312 312 312 311 310 311 314 315 313 308 311 320 324 324 325 325 325 327 326 320 314 315 319 320 319 319 318 316 312 310 309 310 311 310 308 306 303 301 300 299 299 298 297 294 293 291 291 290 290 290 288
106 213 217 200 264 260 245 252 258 255 257 262 263 266 270 257 230 225 237 226 202 228 254 276 289 281 275 281 283 282 288 294 300 307 309 310 311 311 310 309 310 313 313 309 310 317 322 322 322 323 324 325 324 322 317 316 318 319 318 318 318 316 313 312 310 311 312 310 308 306 303 301 302 302 302 302 300 298 297 296 294 293 292 292 292 292
84 253 207 111 316 289 250 247 258 258 263 269 273 274 268 255 244 238 245 240 227 244 258 272 282 280 278 282 284 288 294 297 300 305 307 309 311 310 308 309 311 312 311 311 317 321 321 320 322 323 323 321 319 317 316 317 318 317 316 316 315 314 313 312 312 312 311 309 308 306 305 305 306 305 304 303 302 301 301 300 298 297 296 296 295 295
95 288 11 62 352 283 220 219 273 269 268 272 275 274 258 238 235 230 229 223 223 248 268 273 272 275 286 301 301 297 296 296 299 302 306 309 310 310 309 309 310 310 313 318 321 321 321 321 321 320 319 318 316 317 318 317 316 315 314 314 314 313 313 313 312 311 310 309 309 308 308 308 306 305 305 306 306 305 303 302 301 300 300 299 299 298
116 115 10 69 330 275 242 335 296 294 313 295 267 239 221 222 236 242 235 227 225 233 257 267 265 271 290 302 301 299 300 300 302 305 309 310 310 309 308 308 308 311 317 321 321 320 320 319 318 317 315 315 315 318 319 317 314 313 313 314 314 314 313 312 311 310 309 309 309 308 308 307 306 307 308 308 306 303 302 302 301 301 300 299 299 298
120 112 145 151 216 280 302 331 326 353 2 287 236 179 190 223 234 239 241 234 229 226 233 254 269 281 292 294 288 288 292 297 302 305 306 306 306 305 305 306 310 315 318 319 318 318 317 316 314 313 312 314 317 319 318 314 313 313 314 314 315 314 312 311 311 311 310 309 309 309 309 309 310 310 308 305 305 305 304 303 304 304 302 299 299 299
122 119 159 175 184 267 319 1 353 322 244 244 234 185 189 206 214 239 253 241 234 243 248 254 266 275 281 283 283 286 291 297 301 300 299 301 301 299 299 304 311 314 315 316 316 316 316 313 311 310 312 317 320 319 316 313 313 314 314 315 315 314 313 313 312 311 310 311 312 311 311 313 313 310 308 308 309 309 308 306 304 303 301 298 297 297
137 137 164 179 188 269 355 46 309 279 278 284 281 200 191 201 215 290 284 257 224 223 242 255 265 268 271 280 287 294 299 301 299 294 296 299 297 294 296 303 309 311 311 313 315 316 314 310 307 310 314 319 320 318 313 311 313 314 315 316 316 315 315 313 309 310 313 314 314 315 317 317 313 310 309 310 311 310 308 306 304 301 300 298 297 295
139 133 143 183 206 199 255 240 253 304 315 317 282 199 185 187 170 146 285 277 257 238 250 257 262 265 273 287 296 302 306 304 296 293 297 297 294 297 300 303 306 308 309 312 315 315 310 305 305 310 315 319 319 315 310 310 314 316 316 317 317 315 311 309 310 313 315 314 316 320 319 314 309 307 308 310 311 310 309 307 305 303 302 301 299 298
130 141 163 190 243 122 101 291 310 333 308 264 239 231 179 159 152 137 210 284 286 259 241 228 233 273 287 297 303 308 312 307 293 295 306 304 302 305 306 305 306 307 308 312 315 313 308 304 306 311 316 319 318 312 309 312 315 317 318 318 315 310 308 310 313 315 315 315 319 318 311 306 306 309 311 312 311 310 309 307 305 303 303 303 301 300
67 50 119 145 243 130 122 247 240 252 260 240 230 219 173 150 124 100 320 290 280 215 203 200 248 287 295 299 301 307 313 304 291 301 309 309 308 308 308 307 307 307 308 312 315 312 306 304 307 312 317 318 315 311 310 313 316 318 319 315 309 306 308 313 316 315 313 316 317 311 305 306 310 312 313 312 310 308 307 306 304 303 304 303 302 301
297 14 103 185 230 191 157 214 230 239 249 239 217 200 177 146 95 75 316 287 220 178 193 222 270 287 291 296 299 298 281 274 285 299 305 308 308 307 307 306 306 307 309 313 315 311 305 304 307 313 317 318 314 311 312 315 317 319 317 310 305 307 312 316 316 313 312 314 311 307 307 310 312 314 314 312 309 307 306 305 304 303 303 304 304 303
230 214 189 198 220 201 188 234 269 262 244 236 211 185 170 141 78 113 257 264 195 195 230 261 280 287 291 295 295 285 278 281 287 295 302 306 307 307 307 306 305 307 310 313 313 309 304 304 308 313 316 316 312 311 314 317 318 317 313 307 306 310 315 317 315 311 312 313 309 308 310 311 313 315 314 311 309 307 305 304 302 302 305 307 307 304
197 225 200 170 186 196 193 219 275 285 254 210 169 162 160 144 72 230 241 274 270 270 282 285 286 292 297 298 293 286 288 292 294 298 303 306 307 308 308 307 308 310 313 313 312 307 304 305 311 315 316 315 313 313 317 318 317 315 312 306 308 314 318 317 314 314 314 312 309 309 311 311 313 315 314 311 309 306 304 303 304 305 308 308 306 306
174 178 228 208 179 166 161 210 269 293 242 168 141 129 153 181 252 266 274 289 287 287 291 288 288 297 301 298 295 293 294 297 299 302 305 307 308 308 308 310 312 312 314 314 310 306 307 311 314 315 315 314 313 315 318 318 316 314 310 307 312 319 319 315 316 318 314 310 309 310 311 312 315 316 314 312 309 305 304 307 309 309 308 306 307 308
183 181 213 231 189 154 159 203 213 239 179 166 165 201 225 235 263 277 282 287 287 286 287 288 292 299 298 296 296 296 297 299 302 305 308 308 309 309 310 313 314 314 314 313 309 308 313 315 315 313 314 314 314 316 319 318 315 314 311 310 317 321 317 315 319 317 311 309 310 311 312 315 317 318 315 312 309 305 306 310 311 310 308 306 308 310
204 190 184 220 210 189 215 235 241 260 211 197 219 254 262 264 274 278 277 278 281 282 285 289 294 296 296 296 297 297 298 301 305 307 308 309 310 311 313 314 315 315 314 310 310 313 316 316 315 313 313 314 315 317 319 317 315 313 311 314 319 319 316 318 319 313 310 311 312 313 316 318 319 319 318 316 313 310 309 310 312 313 311 309 308 310
211 188 160 200 235 268 270 259 256 263 264 255 254 263 269 273 277 278 275 273 274 279 285 289 290 292 296 298 296 296 300 303 306 307 308 309 311 313 315 316 316 314 311 310 314 317 317 316 316 315 314 315 316 318 319 317 314 313 313 316 318 317 316 317 314 312 313 314 314 317 320 321 321 323 324 322 317 312 311 311 314 315 313 311 310 312
220 188 193 227 225 296 274 254 241 249 258 263 267 270 272 276 278 277 273 272 276 282 284 284 285 291 296 297 296 298 301 303 304 305 307 310 314 316 318 318 314 310 311 315 318 319 318 317 317 316 315 315 317 319 319 317 315 316 314 314 316 317 317 314 312 314 316 316 318 322 323 322 323 325 326 324 321 317 314 313 314 314 312 313 315 316
178 171 198 228 202 215 256 269 269 268 269 273 276 275 275 278 280 277 274 275 278 280 280 280 285 291 296 298 299 299 300 301 300 303 307 313 317 320 320 315 310 310 313 317 319 319 318 317 317 316 315 315 318 321 319 317 318 317 314 314 316 316 312 310 312 314 316 318 321 324 324 323 324 324 324 324 324 321 318 316 316 314 313 314 317 318
145 159 186 207 223 248 270 275 274 276 279 278 276 278 283 285 284 280 277 275 276 278 280 283 287 291 295 299 301 299 298 297 297 301 308 315 320 321 318 312 309 311 314 317 319 319 317 317 317 316 315 316 320 322 320 319 320 316 314 315 314 309 306 308 311 314 316 320 323 325 325 323 323 323 323 323 321 320 319 320 320 316 313 311 311 310
151 189 181 151 257 264 259 258 258 265 280 279 281 288 293 293 289 283 279 279 281 285 287 288 290 294 296 299 301 299 296 295 297 302 310 316 320 321 317 312 310 311 314 318 319 318 317 318 318 317 316 318 321 321 320 321 320 316 316 317 313 307 306 308 312 314 318 322 324 325 324 321 321 322 322 320 319 319 318 318 318 315 312 309 306 302
201 218 195 182 229 246 254 262 261 251 260 277 285 290 292 292 289 283 283 287 290 290 290 290 294 299 301 301 301 299 296 295 298 303 310 316 319 320 318 313 310 312 315 318 319 318 318 320 319 317 317 319 320 319 320 321 319 318 319 319 314 308 306 309 313 315 319 324 325 325 322 320 319 320 320 319 319 318 317 316 314 314 313 310 306 302